DW1304 Shelton CT US current weather conditions

sailwx.info

Wind from 106

Air temperature 18.9° C
Dewpoint 18.4° C

Last reported at 2019-Jun-18 15:01 UTC.
Time now 2019-Jun-18 15:21 UTC

Location: N 41°18' W 073°09'.
View on Google Maps.

See reports from other nearby stations

  
Tides and Currents Weather Stations Pressure Air Temp Water Temp Dewpoint Dewpoint Depression Visibility Wind Speed Wind Dir Waves Ship Positions
date/time (UTC)wind fromknots sea level pressurealtimeterstation pressurevisibilityair tempwater tempwave heightnotes
2019-Jun-18 15:01 106 18.9
2019-Jun-18 14:45 106 18.9
2019-Jun-18 14:32 106 18.9
2019-Jun-18 14:15 106 18.9
2019-Jun-18 14:00 111 18.9
2019-Jun-18 13:45 109 18.9
2019-Jun-18 13:30 171 18.3
2019-Jun-18 13:16 124 18.3
2019-Jun-18 13:01 137 18.3
2019-Jun-18 12:45 205 18.3
2019-Jun-18 12:30 206 18.3
2019-Jun-18 12:15 205 18.3
2019-Jun-18 12:00 107 18.3
2019-Jun-18 11:45 153 18.3
2019-Jun-18 11:30 153 18.3
2019-Jun-18 11:15 153 18.3
2019-Jun-18 11:00 153 18.3
2019-Jun-18 10:45 153 18.3
2019-Jun-18 10:30 153 18.3
2019-Jun-18 10:15 153 18.3
2019-Jun-18 10:00 153 17.8
2019-Jun-18 09:45 153 17.8
2019-Jun-18 09:30 153 17.8
2019-Jun-18 09:15 153 17.8
2019-Jun-18 09:00 153 18.3
2019-Jun-18 08:45 153 18.3
2019-Jun-18 08:30 153 18.3
2019-Jun-18 08:15 153 18.3
2019-Jun-18 08:00 153 18.3
2019-Jun-18 07:45 153 18.3
2019-Jun-18 07:32 153 18.3
2019-Jun-18 07:16 153 18.3
2019-Jun-18 07:02 153 18.3
2019-Jun-18 06:46 153 18.3
2019-Jun-18 06:31 153 18.3
2019-Jun-18 06:17 153 18.3
2019-Jun-18 06:02 153 18.3
2019-Jun-18 05:46 153 18.3
2019-Jun-18 05:31 153 18.3
2019-Jun-18 05:16 153 18.3
2019-Jun-18 05:01 153 18.3
2019-Jun-18 04:46 153 18.3
2019-Jun-18 04:30 153 18.3
2019-Jun-18 04:16 153 18.3
2019-Jun-18 04:01 153 18.3
2019-Jun-18 03:46 153 18.9
2019-Jun-18 03:31 153 18.9
2019-Jun-18 03:16 153 18.9
2019-Jun-18 03:01 153 18.9
2019-Jun-18 02:46 153 19.4
2019-Jun-18 02:30 153 19.4
2019-Jun-18 02:16 153 19.4
2019-Jun-18 02:01 153 20.0
2019-Jun-18 01:46 153 20.0
2019-Jun-18 01:31 153 20.6
2019-Jun-18 01:16 153 20.6
2019-Jun-18 01:00 153 21.1
2019-Jun-18 00:46 153 21.1
2019-Jun-18 00:30 153 21.7
2019-Jun-18 00:16 153 21.7
2019-Jun-18 00:01 153 22.2
2019-Jun-17 23:47 153 22.2
2019-Jun-17 23:30 153 22.8
2019-Jun-17 23:15 153 22.8
2019-Jun-17 23:01 153 22.8
2019-Jun-17 22:45 153 22.8
2019-Jun-17 22:31 153 22.8
2019-Jun-17 22:15 274 23.3
2019-Jun-17 22:01 275 23.3
2019-Jun-17 21:46 347 22.8
2019-Jun-17 21:30 347 22.8
2019-Jun-17 21:16 348 22.8
2019-Jun-17 21:01 348 22.8
2019-Jun-17 20:45 348 22.8
2019-Jun-17 20:30 331 0 gusting 2 22.8
2019-Jun-17 20:16 261 22.8
2019-Jun-17 20:00 165 22.2
2019-Jun-17 19:45 164 22.2
2019-Jun-17 19:30 282 22.2
2019-Jun-17 19:15 188 22.8
2019-Jun-17 19:00 186 22.8
2019-Jun-17 18:46 055 22.2
2019-Jun-17 18:30 055 22.2
2019-Jun-16 23:01 190 21.1
2019-Jun-16 22:46 190 21.1
2019-Jun-16 22:30 190 21.1
2019-Jun-16 22:16 190 21.1
2019-Jun-16 22:00 190 21.1
2019-Jun-16 21:46 190 21.1
2019-Jun-16 21:30 190 21.1
2019-Jun-16 21:16 190 21.1
2019-Jun-16 21:01 124 21.1
2019-Jun-16 20:45 231 21.1
2019-Jun-16 20:31 231 21.1
2019-Jun-16 20:16 231 21.1
2019-Jun-16 20:01 200 21.1
2019-Jun-16 19:46 207 21.1
2019-Jun-16 19:31 101 20.6
2019-Jun-16 19:17 193 20.6
2019-Jun-16 19:02 193 20.6
2019-Jun-16 18:47 184 21.1
2019-Jun-16 18:32 184 21.1
2019-Jun-16 18:18 124 21.1
2019-Jun-16 18:01 124 21.7
2019-Jun-16 17:47 141 21.7
2019-Jun-16 17:31 132 22.2
2019-Jun-16 17:16 202 0 gusting 2 22.8
2019-Jun-16 17:01 097 22.8
2019-Jun-16 16:46 222 23.3
2019-Jun-16 16:31 106 22.8
2019-Jun-16 16:16 061 22.8
2019-Jun-16 16:01 132 22.2
2019-Jun-16 15:45 138 21.7
2019-Jun-16 15:30 163 21.7
2019-Jun-16 15:16 126 21.1
2019-Jun-16 15:00 172 20.0